SCP
0 0 -0 -0 -0 0 0 0 0 0 0 0 0 0 0 0 0 0 0 0 0 0 0 0 0 0 0 0 0 0 0 0 0 0 0 0 0 0 0 0 0 0 0 0 0 0 0 0 0 0 0 0 0 0
0 -0 -0 -0 0 0 0 0 0 0 0 0 0 0 0 0 0 0 0 0 0 0 0 0 0 0 0 0 0 0 0 0 0 0 0 0 0 0 0 0 0 0 0 1 0 1 0 0 0 0 0 0 0 0
0 -0 -0 -0 -0 0 0 0 0 0 0 0 0 0 0 0 0 0 0 0 0 0 0 0 0 0 0 0 0 0 0 0 0 0 0 0 0 0 0 0 0 0 0 0 0 0 0 0 0 0 0 0 0 0
-0 0 -0 -0 -0 0 0 0 0 0 0 0 0 0 0 0 0 0 0 0 0 0 0 0 0 0 0 0 0 0 0 0 0 0 0 0 0 0 0 0 0 0 0 0 0 0 0 0 0 0 0 0 0 0
-0 -0 -0 -0 -0 0 0 0 0 0 0 0 0 0 0 0 0 0 0 0 0 0 0 0 0 0 0 0 0 0 0 0 0 0 0 0 0 0 0 0 0 0 0 0 0 0 0 0 -0 0 0 -0 -0 0
-0 -0 0 0 0 0 0 0 0 0 0 0 0 0 0 0 0 0 0 0 0 0 0 0 0 0 0 0 0 0 0 0 0 0 0 0 0 0 0 0 0 0 0 0 0 0 -0 0 -0 -0 -0 -0 -0 0
-0 -0 0 0 0 0 0 0 0 0 0 0 0 0 0 0 0 0 0 0 0 0 0 0 0 0 0 0 0 0 0 0 0 0 0 0 0 0 0 0 0 0 0 0 0 -0 -0 -0 0 0 -0 -0 -0 -0
0 -0 0 0 -0 -0 0 0 0 0 0 0 0 0 0 0 0 0 0 0 0 0 0 0 0 0 0 0 0 0 0 0 0 0 0 0 0 0 0 0 0 0 0 0 0 0 0 0 0 0 0 0 0 0
0 0 0 0 0 -0 0 0 0 0 0 0 0 0 0 0 0 0 0 0 0 0 0 0 0 0 0 0 0 0 0 0 0 0 0 0 0 0 0 0 0 0 0 0 0 0 0 0 0 0 0 0 0 0
0 0 0 0 0 0 0 0 0 0 0 0 0 0 0 0 0 0 0 0 0 0 0 0 0 0 0 0 0 0 0 0 0 0 0 0 0 0 0 0 0 0 0 0 0 0 0 0 0 0 0 0 0 0
0 0 0 0 0 0 0 0 0 0 0 0 0 0 0 0 0 0 0 0 0 0 0 0 0 0 0 0 0 0 0 0 0 0 0 0 0 0 0 0 0 0 0 0 0 0 0 -0 0 0 0 0 0 0
0 0 0 0 0 0 0 0 0 0 0 0 0 0 0 0 0 0 0 0 0 0 0 0 0 0 0 0 0 0 0 0 0 0 0 0 0 0 0 0 0 0 0 -0 -0 0 -0 -0 0 0 0 0 0 0
0 0 0 0 0 0 0 0 0 0 0 0 0 0 0 0 0 0 0 0 0 0 0 0 0 0 0 0 0 0 0 0 0 0 0 0 0 0 0 0 0 -0 -0 -0 -0 -0 -0 0 0 0 0 0 0 0
0 0 0 0 0 0 0 0 0 0 0 0 0 0 0 0 0 0 0 0 0 0 0 0 0 0 0 0 0 0 0 0 0 0 0 0 0 0 0 0 -0 -0 -0 -0 -0 0 0 0 0 0 0 0 0 0
0 0 0 0 0 0 0 0 0 0 0 0 0 0 0 0 0 0 0 0 0 0 0 0 0 0 0 0 0 0 0 0 0 0 0 0 0 0 0 -0 -0 -0 -0 0 0 0 0 0 0 0 0 0 0 0
0 0 0 0 0 0 0 0 -0 0 0 0 0 0 0 0 0 0 0 0 0 0 0 0 0 0 0 0 0 0 0 0 0 0 0 0 0 0 0 0 0 0 0 0 0 0 0 0 0 0 0 0 0 0
0 0 0 0 0 0 0 0 0 0 0 0 0 0 0 0 0 0 0 0 0 0 0 0 0 0 0 0 0 0 0 0 0 0 0 0 0 0 0 0 0 0 0 0 0 0 0 0 0 0 0 0 0 0
0 0 0 0 0 0 0 0 0 0 0 0 0 0 0 0 0 0 0 0 0 0 0 0 0 0 0 0 0 0 0 0 0 0 0 0 0 0 0 0 0 0 0 0 0 0 0 0 0 0 0 0 0 0
0 0 0 0 0 0 0 0 0 0 0 0 0 0 0 0 0 0 0 0 0 0 0 0 0 0 0 0 0 0 0 0 0 0 0 0 0 0 0 0 0 0 0 0 0 0 0 0 0 0 0 0 0 0
0 0 0 0 0 0 0 0 0 0 0 0 0 0 0 0 0 0 0 0 0 0 0 0 0 0 0 0 0 0 0 0 0 0 0 0 0 0 0 0 0 0 0 0 0 0 0 0 0 0 0 0 0 0
0 0 0 0 0 0 0 0 0 0 0 0 0 0 0 0 0 0 0 0 0 0 0 0 0 0 0 0 0 0 0 0 0 0 0 0 0 0 0 0 0 0 0 0 0 0 0 0 0 0 0 0 0 0
0 0 0 0 0 0 0 0 0 0 0 0 0 0 0 0 0 0 0 0 0 0 0 0 0 0 0 0 0 0 0 0 0 0 0 0 0 0 0 0 0 0 0 0 0 0 0 0 0 0 0 0 0 -0
0 0 0 0 0 0 0 0 0 0 0 0 0 0 0 0 0 0 0 0 0 0 0 0 0 0 0 0 0 0 0 0 0 0 0 0 0 0 0 0 0 0 0 0 0 0 0 0 0 0 0 0 0 0
0 0 0 0 0 0 0 0 0 0 0 0 0 0 0 0 0 0 0 0 0 0 0 0 0 0 0 0 0 0 0 0 0 0 0 0 0 0 0 0 0 0 0 0 0 0 0 0 0 0 0 0 0 0
0 0 0 0 0 0 0 0 0 0 0 0 0 0 0 0 0 0 0 0 0 0 0 0 0 0 0 0 0 0 0 0 0 0 0 0 0 0 0 0 0 0 0 0 0 0 0 0 0 0 0 0 0 0
0 0 0 0 0 0 0 0 0 0 0 0 0 0 0 0 0 0 0 0 0 0 0 0 0 0 0 0 0 0 0 0 0 0 0 0 0 0 0 0 0 0 0 0 0 0 0 0 0 0 0 0 0 -0
0 0 0 0 0 0 0 0 0 0 0 0 0 0 0 0 0 0 0 0 0 0 0 0 0 0 0 0 0 0 0 0 0 0 0 0 0 0 0 0 0 0 0 0 0 0 0 0 0 0 0 0 0 0
0 0 0 0 0 0 0 0 0 0 0 0 0 0 0 0 0 0 0 0 0 0 0 0 0 0 0 0 0 0 0 0 0 0 0 0 0 0 0 0 0 0 0 0 0 0 0 0 0 0 0 0 0 0
0 0 0 0 0 0 0 0 0 0 0 0 0 0 0 0 0 0 0 0 0 0 0 0 0 0 0 0 0 0 0 0 0 0 0 0 0 0 0 0 0 0 0 0 0 0 0 0 0 0 0 0 0 0
-0 0 0 0 0 0 0 0 0 0 0 0 0 0 0 0 0 0 0 0 0 0 0 0 0 0 0 0 0 0 0 0 0 0 0 0 0 0 0 0 0 0 0 0 0 0 0 0 0 0 0 0 0 0
-0 0 0 0 0 0 0 -0 0 0 0 0 0 0 0 0 0 0 0 0 0 0 0 0 0 0 0 0 0 0 0 0 0 0 0 0 0 0 0 0 0 0 0 0 0 0 0 0 0 0 0 0 0 0
0 0 0 0 0 0 -0 -0 0 0 0 0 0 0 0 0 0 0 0 0 0 0 0 0 0 0 0 0 0 0 0 0 0 0 0 0 0 0 0 0 0 0 0 0 0 0 0 0 -0 0 0 0 0 0
0 0 -0 0 0 -0 0 0 -0 -0 -0 0 0 0 0 0 0 0 0 -0 -0 0 0 0 0 0 0 0 0 0 0 0 0 0 0 0 0 0 0 0 0 0 0 0 0 0 0 0 0 0 0 0 0 0
Wind_Speed_500mb
42 39 47 43 14 35 51 56 66 72 85 76 74 68 57 47 39 31 21 16 14 8 3 2 3 5 4 5 2 8 8 6 9 7 7 6 6 5 6 4 4 8 7 9 5 10 13 32 5 16 21 34 22 18
42 42 46 39 17 30 49 58 62 73 92 84 84 63 53 57 40 29 20 24 22 7 5 7 4 2 3 5 6 6 7 6 6 3 3 4 4 7 6 8 6 7 6 8 7 10 14 18 19 16 18 17 32 23
36 45 42 38 13 31 37 55 63 66 82 82 81 62 52 40 46 38 27 26 18 7 15 8 3 2 1 5 4 6 8 4 6 1 4 4 4 6 9 5 4 8 4 5 6 14 21 18 20 26 25 43 37 30
30 35 45 38 21 24 23 56 56 59 78 78 71 72 61 59 44 38 22 28 19 6 7 9 9 3 3 4 9 11 12 14 8 4 2 0 3 4 2 5 7 9 9 3 15 24 26 16 23 26 24 35 39 40
23 27 37 34 39 46 33 41 51 75 73 72 77 66 50 55 43 30 23 29 27 6 2 6 6 5 6 4 13 12 11 10 5 3 2 3 3 5 2 5 6 6 4 1 5 14 17 28 17 9 16 14 10 14
15 19 26 35 23 38 58 74 75 65 82 67 53 46 50 54 48 26 9 23 27 20 2 8 4 7 9 10 15 12 6 6 3 4 5 3 1 6 4 3 10 6 8 11 20 28 27 24 11 12 17 14 12 17
10 13 17 22 28 24 34 41 53 61 55 54 55 49 46 43 32 13 5 13 31 21 3 8 13 10 18 20 13 11 8 2 3 1 6 4 6 6 5 4 6 10 14 22 28 35 25 11 6 11 13 14 20 23
5 8 14 18 21 24 23 36 41 45 54 55 50 44 46 47 27 5 5 30 30 8 4 4 7 17 22 20 15 10 10 6 5 3 6 14 8 9 6 13 8 18 21 32 24 17 18 12 12 17 18 18 20 26
9 10 12 17 20 22 22 26 41 42 46 46 47 55 52 30 11 7 20 30 17 5 5 5 10 11 21 16 11 14 10 8 5 8 6 6 10 11 5 8 13 23 16 31 23 21 18 21 25 23 19 18 19 19
11 12 15 20 23 25 29 27 34 51 47 58 58 20 14 13 33 37 10 8 5 6 6 6 5 10 24 25 19 14 10 6 9 7 8 8 9 10 5 2 13 21 15 31 28 24 26 26 23 17 15 14 13 13
16 12 21 25 29 32 34 35 40 52 59 17 11 8 30 43 10 5 9 11 10 9 12 9 12 15 10 16 14 6 7 8 6 10 7 9 8 15 11 14 20 20 28 24 20 29 27 24 18 14 13 12 10 10
22 18 20 36 37 38 38 44 52 49 12 15 22 34 32 9 7 8 8 8 10 8 15 18 18 12 11 3 6 8 5 6 4 14 7 7 10 16 22 25 31 28 31 37 36 35 27 21 16 14 12 11 10 10
24 21 19 42 34 46 46 45 54 21 44 49 21 12 10 8 5 13 16 7 7 14 17 20 17 15 11 5 5 7 9 6 8 8 7 7 21 23 30 33 33 36 40 40 35 28 24 20 16 13 13 13 12 11
23 20 21 42 39 46 49 40 38 37 20 8 9 6 8 9 10 6 9 11 11 14 29 29 18 8 9 8 3 8 4 4 6 7 8 13 26 32 34 36 42 42 38 34 29 24 20 16 15 14 14 12 12 13
22 10 26 45 41 44 43 48 34 27 10 4 5 6 10 4 9 10 9 11 13 18 28 19 12 12 9 6 4 3 8 7 7 3 8 26 35 38 38 39 42 39 34 29 25 20 17 14 13 13 13 14 16 18
14 14 33 46 43 39 36 38 27 10 4 4 6 7 10 10 13 14 16 15 13 23 21 11 7 7 5 5 9 10 5 6 5 7 16 38 40 34 36 40 37 33 29 26 21 18 15 14 12 13 14 17 18 18
7 26 44 39 38 36 32 24 8 2 2 4 5 3 4 4 9 13 14 12 15 27 14 9 11 11 8 8 8 5 4 8 8 12 27 39 35 33 38 38 34 31 28 23 20 17 17 16 15 14 17 20 19 18
27 39 34 37 45 32 25 9 1 1 4 5 5 7 6 5 10 10 9 14 22 28 21 6 7 10 7 9 8 9 9 12 16 27 31 32 31 35 37 36 32 29 24 20 18 19 18 16 14 16 20 20 17 16
33 37 34 32 30 14 6 5 5 3 6 6 7 7 7 9 8 5 7 13 10 13 9 9 5 7 7 4 3 10 13 18 29 29 29 30 33 36 36 34 30 25 22 20 18 14 14 13 11 13 14 13 11 12
36 39 27 40 13 3 4 2 4 2 4 5 6 8 7 6 5 8 12 12 13 17 11 7 7 6 5 5 4 5 16 25 36 38 34 30 29 34 35 33 26 25 21 19 15 16 13 12 10 11 13 12 12 11
35 45 33 20 12 10 6 4 6 4 6 6 6 6 7 9 8 9 11 4 8 6 7 8 10 9 7 8 10 16 19 26 30 34 38 36 34 33 31 26 25 21 19 16 13 11 13 11 11 11 10 11 12 12
29 23 10 6 5 5 7 1 1 1 2 2 3 6 3 7 7 4 3 4 5 6 3 5 8 11 14 15 19 17 22 25 24 30 30 35 34 31 27 25 24 22 17 16 14 11 8 10 12 13 13 10 15 16
10 5 3 3 5 4 6 3 3 2 2 4 3 3 3 3 3 3 2 6 5 11 5 4 10 13 14 16 18 21 22 24 27 28 28 25 23 23 23 22 23 21 19 20 19 15 13 13 13 16 18 15 11 14
5 2 1 2 5 5 3 3 3 4 3 2 2 4 4 3 1 4 4 5 12 10 10 12 17 18 17 20 22 26 26 24 25 23 20 19 20 21 23 22 23 22 18 15 21 23 22 17 18 17 21 24 17 15
2 3 2 4 4 4 3 3 3 1 3 3 5 4 5 4 4 5 5 7 12 15 16 17 17 17 20 21 25 23 26 20 19 17 15 16 18 20 21 20 19 17 17 16 17 18 20 24 22 25 25 27 24 20
2 2 2 4 7 5 7 7 8 7 4 5 5 3 4 5 6 6 4 4 7 12 20 24 27 23 19 20 23 21 21 19 15 14 16 18 18 17 19 20 20 19 18 18 19 21 23 24 25 26 29 32 31 23
3 5 6 5 3 8 7 6 8 5 7 6 6 8 7 7 7 4 3 2 4 6 14 19 24 24 21 24 22 21 22 18 15 13 17 18 17 16 16 18 19 19 18 18 19 21 23 24 27 29 31 33 33 32
6 5 7 13 9 6 2 6 7 8 6 8 7 10 5 5 2 4 4 3 7 8 12 19 19 18 20 21 22 23 22 21 17 16 16 13 12 13 16 17 21 30 22 19 19 21 23 24 26 28 31 35 35 32
8 9 12 10 7 8 10 9 8 10 9 12 6 6 4 2 1 5 6 8 8 10 17 22 20 21 24 25 25 22 20 19 19 21 20 17 17 16 16 15 16 15 14 14 22 26 22 21 20 21 27 29 33 33
9 17 10 8 6 8 9 15 8 9 11 12 7 4 4 1 1 12 11 8 6 8 12 17 20 22 24 26 27 22 17 19 22 17 19 21 20 17 16 14 16 17 20 23 24 20 25 24 24 22 25 30 30 35
10 18 8 10 8 12 20 13 13 8 9 14 15 13 9 5 6 15 12 10 9 9 10 12 15 17 19 21 20 19 16 17 18 18 19 16 16 16 16 15 15 14 16 18 20 24 23 21 22 22 25 32 32 32
18 17 12 11 9 14 15 20 15 12 13 13 13 13 12 12 12 15 20 18 14 13 13 14 14 15 16 15 15 15 16 11 9 11 12 17 18 14 12 14 18 14 18 15 18 23 26 24 21 18 16 23 29 38
17 17 16 4 9 12 18 16 14 9 11 11 11 13 15 12 8 9 14 26 20 16 16 18 16 12 14 15 15 15 19 19 23 22 23 19 16 17 15 14 16 18 15 17 15 20 23 25 22 20 17 20 22 24
Wind_Direction_500mb
358 355 352 345 323 192 180 179 178 181 181 185 185 190 183 175 182 187 199 182 181 226 276 168 91 60 7 5 267 103 177 155 180 200 215 141 206 140 219 42 253 250 258 202 245 252 241 5 357 343 336 330 336 14
7 6 4 22 74 153 171 181 183 183 182 184 194 194 176 179 180 188 193 204 202 225 281 240 228 177 231 8 7 46 60 83 50 145 156 128 161 180 247 211 185 241 328 353 322 31 53 50 50 19 14 17 1 10
17 17 16 31 123 134 153 171 178 183 182 183 192 193 181 183 186 189 198 198 196 231 250 263 185 256 322 59 61 331 103 73 73 103 65 78 209 266 209 202 241 175 190 263 233 81 87 78 66 52 45 53 36 11
21 24 24 34 85 175 156 175 176 178 183 185 192 194 187 195 185 189 192 194 180 186 247 166 237 249 175 84 117 95 99 81 84 70 86 221 161 242 179 58 279 27 171 194 103 108 111 87 106 90 67 47 50 36
30 33 36 38 72 120 154 165 163 180 182 189 187 174 184 193 180 179 190 195 192 158 255 159 203 215 201 154 154 120 69 56 51 147 158 126 105 207 177 253 214 174 48 327 74 138 119 150 133 13 353 341 302 266
37 49 53 50 75 95 115 144 162 165 176 182 176 170 180 170 163 141 166 212 198 198 330 183 147 152 170 148 144 148 107 55 26 330 62 123 26 279 248 139 57 125 98 94 129 133 149 145 138 16 12 19 36 60
42 69 81 78 67 106 107 112 138 156 163 178 174 181 171 163 145 177 199 197 182 184 227 172 155 156 152 143 145 148 125 89 305 326 236 266 180 249 261 185 82 139 125 122 123 141 159 148 55 23 59 66 67 75
107 87 112 111 111 92 107 131 122 136 150 148 149 154 154 152 163 158 150 155 159 169 184 219 120 162 171 177 163 170 179 192 179 286 205 231 163 231 252 100 129 140 132 146 135 143 140 131 87 88 92 92 81 73
165 152 141 143 134 134 115 111 136 130 134 142 143 142 140 149 150 157 143 146 144 151 192 213 181 147 170 173 140 165 214 206 126 232 196 222 196 222 103 132 152 158 153 158 143 131 124 118 112 105 97 81 72 64
174 172 167 160 155 148 140 128 127 132 134 129 129 137 142 142 128 114 104 148 203 219 204 221 144 144 182 172 180 146 196 197 196 155 133 236 211 102 96 149 158 158 151 154 144 138 132 125 118 105 85 67 54 48
194 191 184 172 166 155 150 146 147 145 138 143 146 143 149 146 130 146 147 190 173 202 193 175 193 151 171 188 157 237 180 158 231 130 241 180 219 138 138 125 140 141 142 148 140 133 129 124 118 104 87 77 68 57
196 199 190 182 170 163 156 151 154 154 170 165 132 131 133 168 184 192 179 162 212 180 167 172 156 151 143 134 145 187 215 183 223 133 226 224 104 134 144 131 128 131 130 126 125 122 116 107 98 94 89 77 65 60
192 203 191 172 175 168 163 158 166 159 137 128 127 152 175 160 185 197 174 172 187 170 169 162 147 154 144 148 167 191 205 183 124 209 216 55 126 142 144 138 129 130 130 125 121 115 106 96 91 86 77 67 62 64
182 196 195 165 160 161 158 163 172 170 153 169 148 134 214 180 206 180 172 142 125 156 159 165 141 150 142 153 192 198 84 201 219 230 196 128 148 144 144 141 137 137 134 129 124 116 111 104 90 76 67 63 71 75
177 193 162 156 158 159 163 170 171 150 135 231 221 187 195 133 150 152 149 148 136 146 150 149 135 169 142 141 210 142 181 223 225 206 98 142 148 145 142 143 143 142 138 130 128 124 111 99 93 81 71 81 85 88
164 161 119 159 159 159 162 169 180 152 188 209 210 187 157 190 151 166 170 155 150 151 150 154 134 157 173 177 190 199 201 220 115 107 127 147 146 144 145 147 146 143 139 134 130 122 111 109 108 103 102 102 105 102
176 129 120 150 154 156 146 159 128 16 277 215 146 140 168 100 127 146 163 159 161 167 173 134 182 164 136 202 191 207 205 69 96 125 144 154 150 147 146 147 147 146 143 137 129 124 123 119 112 108 118 120 115 109
117 108 118 134 154 138 125 142 35 238 122 84 150 98 107 116 136 132 144 159 157 181 176 161 142 184 179 172 189 152 138 109 111 132 139 147 146 146 150 149 149 149 143 138 137 134 129 124 113 120 128 131 122 118
108 109 128 127 150 125 95 51 41 45 45 75 80 79 92 95 90 108 143 162 169 177 176 185 175 197 181 115 42 144 149 147 138 133 135 140 143 146 149 149 147 146 145 144 143 144 146 137 138 147 153 145 146 145
117 112 127 166 151 103 111 94 70 41 55 43 50 70 89 91 90 84 110 124 145 174 182 206 189 144 175 85 136 167 159 153 150 141 143 144 146 150 152 151 151 149 141 141 144 149 157 160 157 164 171 181 177 170
129 120 105 110 96 66 67 38 31 35 6 37 37 61 81 110 105 134 154 131 166 149 161 182 174 162 147 142 133 146 148 157 165 168 158 149 151 155 156 157 151 156 154 152 144 148 161 175 172 175 183 189 194 185
128 127 128 72 85 72 64 306 316 333 18 90 35 21 48 106 125 78 26 143 163 191 318 172 157 147 142 127 133 138 146 144 152 162 158 154 156 165 170 172 174 177 177 173 162 154 153 180 190 190 186 210 200 204
96 97 71 142 156 134 118 124 184 58 161 111 146 149 98 85 43 1 206 180 157 224 211 168 150 136 136 141 144 142 145 148 147 149 150 159 170 178 183 187 192 195 196 199 195 193 190 194 212 196 195 177 199 209
53 50 40 62 56 96 111 116 94 89 98 119 128 119 133 119 5 206 241 211 194 178 179 176 163 151 139 141 148 150 144 147 152 154 160 169 180 188 190 197 204 214 219 217 213 218 221 209 210 206 209 208 210 218
296 32 14 32 70 90 98 106 95 127 132 143 173 164 162 191 212 221 213 222 199 193 191 180 168 179 171 163 151 156 152 154 161 165 174 179 185 185 189 195 207 213 216 214 225 240 232 218 218 224 221 213 214 222
6 130 168 152 145 194 163 162 183 168 157 159 184 169 192 219 226 226 200 205 215 197 197 189 182 173 167 167 162 164 171 171 165 176 183 179 182 192 199 202 208 220 224 229 240 247 247 240 230 221 219 216 213 213
259 182 181 193 174 156 159 146 148 169 175 183 180 186 198 223 220 189 183 187 150 179 189 188 192 190 187 175 169 165 169 166 170 176 172 171 181 193 207 223 236 242 238 241 244 241 241 240 242 235 227 215 212 210
240 210 207 173 193 200 181 188 191 194 182 181 194 199 214 225 188 153 160 197 197 204 184 175 171 169 171 169 169 174 183 190 191 195 185 183 208 226 240 248 252 257 251 241 240 239 241 244 243 237 230 221 206 211
214 192 188 174 188 210 219 219 206 196 195 190 205 195 198 213 227 102 129 110 111 138 154 160 154 158 166 173 174 178 188 194 190 193 210 235 238 258 257 241 240 244 235 246 251 234 235 236 243 234 219 208 201 209
204 186 181 173 198 225 228 198 208 197 196 204 223 232 249 213 346 163 142 112 109 127 155 173 178 180 183 190 193 193 205 207 202 210 239 252 257 247 238 239 235 239 246 240 233 238 239 241 241 233 214 206 201 203
169 181 209 198 237 224 217 203 210 202 212 220 223 239 234 192 166 172 167 162 150 145 148 158 166 174 180 177 176 182 196 217 233 244 244 241 239 233 230 233 232 231 239 247 246 231 230 225 225 221 218 213 210 209
181 187 209 200 210 181 176 190 199 212 204 205 206 199 192 203 204 199 203 189 185 183 179 168 167 175 176 178 180 192 204 218 234 234 233 227 222 235 244 227 229 257 236 245 256 230 224 224 223 219 218 221 227 227
207 208 215 216 158 171 170 179 200 200 195 200 197 201 202 211 216 199 209 198 201 204 202 196 191 194 204 212 216 223 243 249 253 252 243 232 235 232 227 238 236 236 241 237 241 223 217 211 221 229 228 231 245 246
Wind_Speed_850mb
42 39 47 43 14 35 51 56 66 72 85 76 74 68 57 47 39 31 21 16 14 8 3 2 3 5 4 5 2 8 8 6 9 7 7 6 6 5 6 4 4 8 7 9 5 10 13 32 5 16 21 34 22 18
42 42 46 39 17 30 49 58 62 73 92 84 84 63 53 57 40 29 20 24 22 7 5 7 4 2 3 5 6 6 7 6 6 3 3 4 4 7 6 8 6 7 6 8 7 10 14 18 19 16 18 17 32 23
36 45 42 38 13 31 37 55 63 66 82 82 81 62 52 40 46 38 27 26 18 7 15 8 3 2 1 5 4 6 8 4 6 1 4 4 4 6 9 5 4 8 4 5 6 14 21 18 20 26 25 43 37 30
30 35 45 38 21 24 23 56 56 59 78 78 71 72 61 59 44 38 22 28 19 6 7 9 9 3 3 4 9 11 12 14 8 4 2 0 3 4 2 5 7 9 9 3 15 24 26 16 23 26 24 35 39 40
23 27 37 34 39 46 33 41 51 75 73 72 77 66 50 55 43 30 23 29 27 6 2 6 6 5 6 4 13 12 11 10 5 3 2 3 3 5 2 5 6 6 4 1 5 14 17 28 17 9 16 14 10 14
15 19 26 35 23 38 58 74 75 65 82 67 53 46 50 54 48 26 9 23 27 20 2 8 4 7 9 10 15 12 6 6 3 4 5 3 1 6 4 3 10 6 8 11 20 28 27 24 11 12 17 14 12 17
10 13 17 22 28 24 34 41 53 61 55 54 55 49 46 43 32 13 5 13 31 21 3 8 13 10 18 20 13 11 8 2 3 1 6 4 6 6 5 4 6 10 14 22 28 35 25 11 6 11 13 14 20 23
5 8 14 18 21 24 23 36 41 45 54 55 50 44 46 47 27 5 5 30 30 8 4 4 7 17 22 20 15 10 10 6 5 3 6 14 8 9 6 13 8 18 21 32 24 17 18 12 12 17 18 18 20 26
9 10 12 17 20 22 22 26 41 42 46 46 47 55 52 30 11 7 20 30 17 5 5 5 10 11 21 16 11 14 10 8 5 8 6 6 10 11 5 8 13 23 16 31 23 21 18 21 25 23 19 18 19 19
11 12 15 20 23 25 29 27 34 51 47 58 58 20 14 13 33 37 10 8 5 6 6 6 5 10 24 25 19 14 10 6 9 7 8 8 9 10 5 2 13 21 15 31 28 24 26 26 23 17 15 14 13 13
16 12 21 25 29 32 34 35 40 52 59 17 11 8 30 43 10 5 9 11 10 9 12 9 12 15 10 16 14 6 7 8 6 10 7 9 8 15 11 14 20 20 28 24 20 29 27 24 18 14 13 12 10 10
22 18 20 36 37 38 38 44 52 49 12 15 22 34 32 9 7 8 8 8 10 8 15 18 18 12 11 3 6 8 5 6 4 14 7 7 10 16 22 25 31 28 31 37 36 35 27 21 16 14 12 11 10 10
24 21 19 42 34 46 46 45 54 21 44 49 21 12 10 8 5 13 16 7 7 14 17 20 17 15 11 5 5 7 9 6 8 8 7 7 21 23 30 33 33 36 40 40 35 28 24 20 16 13 13 13 12 11
23 20 21 42 39 46 49 40 38 37 20 8 9 6 8 9 10 6 9 11 11 14 29 29 18 8 9 8 3 8 4 4 6 7 8 13 26 32 34 36 42 42 38 34 29 24 20 16 15 14 14 12 12 13
22 10 26 45 41 44 43 48 34 27 10 4 5 6 10 4 9 10 9 11 13 18 28 19 12 12 9 6 4 3 8 7 7 3 8 26 35 38 38 39 42 39 34 29 25 20 17 14 13 13 13 14 16 18
14 14 33 46 43 39 36 38 27 10 4 4 6 7 10 10 13 14 16 15 13 23 21 11 7 7 5 5 9 10 5 6 5 7 16 38 40 34 36 40 37 33 29 26 21 18 15 14 12 13 14 17 18 18
7 26 44 39 38 36 32 24 8 2 2 4 5 3 4 4 9 13 14 12 15 27 14 9 11 11 8 8 8 5 4 8 8 12 27 39 35 33 38 38 34 31 28 23 20 17 17 16 15 14 17 20 19 18
27 39 34 37 45 32 25 9 1 1 4 5 5 7 6 5 10 10 9 14 22 28 21 6 7 10 7 9 8 9 9 12 16 27 31 32 31 35 37 36 32 29 24 20 18 19 18 16 14 16 20 20 17 16
33 37 34 32 30 14 6 5 5 3 6 6 7 7 7 9 8 5 7 13 10 13 9 9 5 7 7 4 3 10 13 18 29 29 29 30 33 36 36 34 30 25 22 20 18 14 14 13 11 13 14 13 11 12
36 39 27 40 13 3 4 2 4 2 4 5 6 8 7 6 5 8 12 12 13 17 11 7 7 6 5 5 4 5 16 25 36 38 34 30 29 34 35 33 26 25 21 19 15 16 13 12 10 11 13 12 12 11
35 45 33 20 12 10 6 4 6 4 6 6 6 6 7 9 8 9 11 4 8 6 7 8 10 9 7 8 10 16 19 26 30 34 38 36 34 33 31 26 25 21 19 16 13 11 13 11 11 11 10 11 12 12
29 23 10 6 5 5 7 1 1 1 2 2 3 6 3 7 7 4 3 4 5 6 3 5 8 11 14 15 19 17 22 25 24 30 30 35 34 31 27 25 24 22 17 16 14 11 8 10 12 13 13 10 15 16
10 5 3 3 5 4 6 3 3 2 2 4 3 3 3 3 3 3 2 6 5 11 5 4 10 13 14 16 18 21 22 24 27 28 28 25 23 23 23 22 23 21 19 20 19 15 13 13 13 16 18 15 11 14
5 2 1 2 5 5 3 3 3 4 3 2 2 4 4 3 1 4 4 5 12 10 10 12 17 18 17 20 22 26 26 24 25 23 20 19 20 21 23 22 23 22 18 15 21 23 22 17 18 17 21 24 17 15
2 3 2 4 4 4 3 3 3 1 3 3 5 4 5 4 4 5 5 7 12 15 16 17 17 17 20 21 25 23 26 20 19 17 15 16 18 20 21 20 19 17 17 16 17 18 20 24 22 25 25 27 24 20
2 2 2 4 7 5 7 7 8 7 4 5 5 3 4 5 6 6 4 4 7 12 20 24 27 23 19 20 23 21 21 19 15 14 16 18 18 17 19 20 20 19 18 18 19 21 23 24 25 26 29 32 31 23
3 5 6 5 3 8 7 6 8 5 7 6 6 8 7 7 7 4 3 2 4 6 14 19 24 24 21 24 22 21 22 18 15 13 17 18 17 16 16 18 19 19 18 18 19 21 23 24 27 29 31 33 33 32
6 5 7 13 9 6 2 6 7 8 6 8 7 10 5 5 2 4 4 3 7 8 12 19 19 18 20 21 22 23 22 21 17 16 16 13 12 13 16 17 21 30 22 19 19 21 23 24 26 28 31 35 35 32
8 9 12 10 7 8 10 9 8 10 9 12 6 6 4 2 1 5 6 8 8 10 17 22 20 21 24 25 25 22 20 19 19 21 20 17 17 16 16 15 16 15 14 14 22 26 22 21 20 21 27 29 33 33
9 17 10 8 6 8 9 15 8 9 11 12 7 4 4 1 1 12 11 8 6 8 12 17 20 22 24 26 27 22 17 19 22 17 19 21 20 17 16 14 16 17 20 23 24 20 25 24 24 22 25 30 30 35
10 18 8 10 8 12 20 13 13 8 9 14 15 13 9 5 6 15 12 10 9 9 10 12 15 17 19 21 20 19 16 17 18 18 19 16 16 16 16 15 15 14 16 18 20 24 23 21 22 22 25 32 32 32
18 17 12 11 9 14 15 20 15 12 13 13 13 13 12 12 12 15 20 18 14 13 13 14 14 15 16 15 15 15 16 11 9 11 12 17 18 14 12 14 18 14 18 15 18 23 26 24 21 18 16 23 29 38
17 17 16 4 9 12 18 16 14 9 11 11 11 13 15 12 8 9 14 26 20 16 16 18 16 12 14 15 15 15 19 19 23 22 23 19 16 17 15 14 16 18 15 17 15 20 23 25 22 20 17 20 22 24
Wind_Direction_850mb
358 355 352 345 323 192 180 179 178 181 181 185 185 190 183 175 182 187 199 182 181 226 276 168 91 60 7 5 267 103 177 155 180 200 215 141 206 140 219 42 253 250 258 202 245 252 241 5 357 343 336 330 336 14
7 6 4 22 74 153 171 181 183 183 182 184 194 194 176 179 180 188 193 204 202 225 281 240 228 177 231 8 7 46 60 83 50 145 156 128 161 180 247 211 185 241 328 353 322 31 53 50 50 19 14 17 1 10
17 17 16 31 123 134 153 171 178 183 182 183 192 193 181 183 186 189 198 198 196 231 250 263 185 256 322 59 61 331 103 73 73 103 65 78 209 266 209 202 241 175 190 263 233 81 87 78 66 52 45 53 36 11
21 24 24 34 85 175 156 175 176 178 183 185 192 194 187 195 185 189 192 194 180 186 247 166 237 249 175 84 117 95 99 81 84 70 86 221 161 242 179 58 279 27 171 194 103 108 111 87 106 90 67 47 50 36
30 33 36 38 72 120 154 165 163 180 182 189 187 174 184 193 180 179 190 195 192 158 255 159 203 215 201 154 154 120 69 56 51 147 158 126 105 207 177 253 214 174 48 327 74 138 119 150 133 13 353 341 302 266
37 49 53 50 75 95 115 144 162 165 176 182 176 170 180 170 163 141 166 212 198 198 330 183 147 152 170 148 144 148 107 55 26 330 62 123 26 279 248 139 57 125 98 94 129 133 149 145 138 16 12 19 36 60
42 69 81 78 67 106 107 112 138 156 163 178 174 181 171 163 145 177 199 197 182 184 227 172 155 156 152 143 145 148 125 89 305 326 236 266 180 249 261 185 82 139 125 122 123 141 159 148 55 23 59 66 67 75
107 87 112 111 111 92 107 131 122 136 150 148 149 154 154 152 163 158 150 155 159 169 184 219 120 162 171 177 163 170 179 192 179 286 205 231 163 231 252 100 129 140 132 146 135 143 140 131 87 88 92 92 81 73
165 152 141 143 134 134 115 111 136 130 134 142 143 142 140 149 150 157 143 146 144 151 192 213 181 147 170 173 140 165 214 206 126 232 196 222 196 222 103 132 152 158 153 158 143 131 124 118 112 105 97 81 72 64
174 172 167 160 155 148 140 128 127 132 134 129 129 137 142 142 128 114 104 148 203 219 204 221 144 144 182 172 180 146 196 197 196 155 133 236 211 102 96 149 158 158 151 154 144 138 132 125 118 105 85 67 54 48
194 191 184 172 166 155 150 146 147 145 138 143 146 143 149 146 130 146 147 190 173 202 193 175 193 151 171 188 157 237 180 158 231 130 241 180 219 138 138 125 140 141 142 148 140 133 129 124 118 104 87 77 68 57
196 199 190 182 170 163 156 151 154 154 170 165 132 131 133 168 184 192 179 162 212 180 167 172 156 151 143 134 145 187 215 183 223 133 226 224 104 134 144 131 128 131 130 126 125 122 116 107 98 94 89 77 65 60
192 203 191 172 175 168 163 158 166 159 137 128 127 152 175 160 185 197 174 172 187 170 169 162 147 154 144 148 167 191 205 183 124 209 216 55 126 142 144 138 129 130 130 125 121 115 106 96 91 86 77 67 62 64
182 196 195 165 160 161 158 163 172 170 153 169 148 134 214 180 206 180 172 142 125 156 159 165 141 150 142 153 192 198 84 201 219 230 196 128 148 144 144 141 137 137 134 129 124 116 111 104 90 76 67 63 71 75
177 193 162 156 158 159 163 170 171 150 135 231 221 187 195 133 150 152 149 148 136 146 150 149 135 169 142 141 210 142 181 223 225 206 98 142 148 145 142 143 143 142 138 130 128 124 111 99 93 81 71 81 85 88
164 161 119 159 159 159 162 169 180 152 188 209 210 187 157 190 151 166 170 155 150 151 150 154 134 157 173 177 190 199 201 220 115 107 127 147 146 144 145 147 146 143 139 134 130 122 111 109 108 103 102 102 105 102
176 129 120 150 154 156 146 159 128 16 277 215 146 140 168 100 127 146 163 159 161 167 173 134 182 164 136 202 191 207 205 69 96 125 144 154 150 147 146 147 147 146 143 137 129 124 123 119 112 108 118 120 115 109
117 108 118 134 154 138 125 142 35 238 122 84 150 98 107 116 136 132 144 159 157 181 176 161 142 184 179 172 189 152 138 109 111 132 139 147 146 146 150 149 149 149 143 138 137 134 129 124 113 120 128 131 122 118
108 109 128 127 150 125 95 51 41 45 45 75 80 79 92 95 90 108 143 162 169 177 176 185 175 197 181 115 42 144 149 147 138 133 135 140 143 146 149 149 147 146 145 144 143 144 146 137 138 147 153 145 146 145
117 112 127 166 151 103 111 94 70 41 55 43 50 70 89 91 90 84 110 124 145 174 182 206 189 144 175 85 136 167 159 153 150 141 143 144 146 150 152 151 151 149 141 141 144 149 157 160 157 164 171 181 177 170
129 120 105 110 96 66 67 38 31 35 6 37 37 61 81 110 105 134 154 131 166 149 161 182 174 162 147 142 133 146 148 157 165 168 158 149 151 155 156 157 151 156 154 152 144 148 161 175 172 175 183 189 194 185
128 127 128 72 85 72 64 306 316 333 18 90 35 21 48 106 125 78 26 143 163 191 318 172 157 147 142 127 133 138 146 144 152 162 158 154 156 165 170 172 174 177 177 173 162 154 153 180 190 190 186 210 200 204
96 97 71 142 156 134 118 124 184 58 161 111 146 149 98 85 43 1 206 180 157 224 211 168 150 136 136 141 144 142 145 148 147 149 150 159 170 178 183 187 192 195 196 199 195 193 190 194 212 196 195 177 199 209
53 50 40 62 56 96 111 116 94 89 98 119 128 119 133 119 5 206 241 211 194 178 179 176 163 151 139 141 148 150 144 147 152 154 160 169 180 188 190 197 204 214 219 217 213 218 221 209 210 206 209 208 210 218
296 32 14 32 70 90 98 106 95 127 132 143 173 164 162 191 212 221 213 222 199 193 191 180 168 179 171 163 151 156 152 154 161 165 174 179 185 185 189 195 207 213 216 214 225 240 232 218 218 224 221 213 214 222
6 130 168 152 145 194 163 162 183 168 157 159 184 169 192 219 226 226 200 205 215 197 197 189 182 173 167 167 162 164 171 171 165 176 183 179 182 192 199 202 208 220 224 229 240 247 247 240 230 221 219 216 213 213
259 182 181 193 174 156 159 146 148 169 175 183 180 186 198 223 220 189 183 187 150 179 189 188 192 190 187 175 169 165 169 166 170 176 172 171 181 193 207 223 236 242 238 241 244 241 241 240 242 235 227 215 212 210
240 210 207 173 193 200 181 188 191 194 182 181 194 199 214 225 188 153 160 197 197 204 184 175 171 169 171 169 169 174 183 190 191 195 185 183 208 226 240 248 252 257 251 241 240 239 241 244 243 237 230 221 206 211
214 192 188 174 188 210 219 219 206 196 195 190 205 195 198 213 227 102 129 110 111 138 154 160 154 158 166 173 174 178 188 194 190 193 210 235 238 258 257 241 240 244 235 246 251 234 235 236 243 234 219 208 201 209
204 186 181 173 198 225 228 198 208 197 196 204 223 232 249 213 346 163 142 112 109 127 155 173 178 180 183 190 193 193 205 207 202 210 239 252 257 247 238 239 235 239 246 240 233 238 239 241 241 233 214 206 201 203
169 181 209 198 237 224 217 203 210 202 212 220 223 239 234 192 166 172 167 162 150 145 148 158 166 174 180 177 176 182 196 217 233 244 244 241 239 233 230 233 232 231 239 247 246 231 230 225 225 221 218 213 210 209
181 187 209 200 210 181 176 190 199 212 204 205 206 199 192 203 204 199 203 189 185 183 179 168 167 175 176 178 180 192 204 218 234 234 233 227 222 235 244 227 229 257 236 245 256 230 224 224 223 219 218 221 227 227
207 208 215 216 158 171 170 179 200 200 195 200 197 201 202 211 216 199 209 198 201 204 202 196 191 194 204 212 216 223 243 249 253 252 243 232 235 232 227 238 236 236 241 237 241 223 217 211 221 229 228 231 245 246